Location: Peterborough
(44.3091°N, 78.3197°W)
Time: 05:13:57
(UTC-04:00)

A-11 Canister half - Pass Details

Date: 31 March 2023
Orbit: 1513 x 1686 km, 47.2° (Epoch: 04 June)

Event Time Altitude Azimuth Distance (km) Brightness Sun altitude
Exits shadow 05:36:06 17° 231° (SW) 3,436 10.2 -14.8°
Drops below altitude 10° 05:41:03 10° 201° (SSW) 3,924 10.7 -14.0°
Sets 05:45:46 0° 183° (S) 4,887 11.4 -13.2°
